Regional Weather Roundup
Issued by NWS Goodland, KS

Home | Current Version | Previous Version | Graphics & Text | Print | Product List | Glossary On
Versions: 1 2 3 4 5 6 7 8 9 10 11 12 13 14 15 16 17 18 19 20 21 22 23 24 25 26 27 28 29 30 31 32 33 34 35 36 37 38 39 40 41 42 43 44 45 46 47 48 49 50
643
ASUS43 KGLD 220308
RWRGLD

GOODLAND FORECAST AREA HOURLY WEATHER ROUNDUP
NATIONAL WEATHER SERVICE GOODLAND KS
900 PM MDT THU SEP 21 2017

...OFFICIAL OBSERVATIONS...

CITY           SKY/WX    TMP DP  RH WIND       PRES   REMARKS
GOODLAND KS    CLEAR     73  37  27 S10       29.69R
HILL CITY KS   CLEAR     86  61  42 S16G23    29.70R
IMPERIAL NEB   CLEAR     77  34  21 SE16      29.64R
MCCOOK NEB       N/A     82  42  24 S15       29.65R
AKRON CO       CLEAR     71  24  17 S10       29.69R
BURLINGTON CO  CLEAR     74  37  26 S16       29.71R
LIMON CO       CLEAR     69  25  19 S13       29.75S
$$

...UNOFFICIAL OBSERVATIONS...

CITY           SKY/WX    TMP DP  RH WIND       PRES   REMARKS
NORTON KS      CLEAR     81  32  17 SE14G20   29.69R
SHARON SPRINGS   N/A     78  41  26 S18G25      N/A
KIT CARSON CO    N/A     77  37  24 MISG        N/A
YUMA CO        FAIR      63  32  31 S7        29.67R
$$




USA.gov is the U.S. government's official web portal to all federal, state and local government web resources and services.